Eveleth, MN

7:14 AM CDT on August 17, 2017 (GMT -0500)
Eveleth-Virginia Municipal

Weather History for KEVM - August, 2013

Change the Weather History Date:

Tuesday, August 6, 2013

  Actual Average Record
Temperature  
Mean Temperature 57 °F -  
Max Temperature 66 °F 75 °F 136 °F (2014)
Min Temperature 48 °F 51 °F 37 °F (2004)
Degree Days  
Heating Degree Days 8    
Growing Degree Days 7 (Base 50)    
Moisture  
Dew Point 56 °F    
Average Humidity 89    
Maximum Humidity 100    
Minimum Humidity 68    
Precipitation  
Precipitation 0.06 in - - ()
Sea Level Pressure  
Sea Level Pressure 29.79 in    
Wind  
Wind Speed 3 mph (WSW)    
Max Wind Speed 8 mph    
Max Gust Speed -    
Visibility 7 miles    
Events Fog , Rain    
Averages and records for this station are not official NWS values.
T = Trace of Precipitation, MM = Missing Value Source: NWS Daily Summary

Daily Weather History Graph

Daily Weather History Graph

Search for Another Location

Airport or City:

Trip Planner

Search our weather history database for the weather conditions in past years. The results will help you decide how hot, cold, wet, or windy it might be!

Date:

Astronomy

Aug. 06, 2013 Rise Set
Actual Time 5:54 AM CDT 8:36 PM CDT
Civil Twilight 5:19 AM CDT 9:10 PM CDT
Nautical Twilight 4:35 AM CDT 9:55 PM CDT
Astronomical Twilight 3:42 AM CDT 10:46 PM CDT
Moon 5:50 AM CDT (8/6) 8:04 PM CDT (8/6)
Length of Visible Light 15h 51m
Length of Day
14h 41m
Waning Crescent, 0% of the Moon is Illuminated
Aug 6
Waning Crescent
Aug 6
New
Aug 14
First Quarter
Aug 20
Full
Aug 28
Last Quarter

Hourly Weather History & Observations

Time (CDT) Temp. Dew Point Humidity Pressure Visibility Wind Dir Wind Speed Gust Speed Precip Events Conditions
12:08 AM 57.2 °F 55.4 °F 94% 29.83 in 10.0 mi WNW 5.8 mph - N/A   Mostly Cloudy
12:27 AM 59.0 °F 59.0 °F 100% 29.82 in 10.0 mi WNW 4.6 mph - N/A   Overcast
12:48 AM 59.0 °F 55.4 °F 88% 29.82 in 10.0 mi WNW 4.6 mph - N/A   Scattered Clouds
1:08 AM 59.0 °F 59.0 °F 100% 29.82 in 10.0 mi West 3.5 mph - N/A   Scattered Clouds
1:27 AM 57.2 °F 55.4 °F 94% 29.81 in 10.0 mi NW 3.5 mph - N/A   Scattered Clouds
1:48 AM 55.4 °F 55.4 °F 100% 29.81 in 2.5 mi Calm Calm - N/A   Clear
2:08 AM 57.2 °F 55.4 °F 94% 29.80 in 7.0 mi Calm Calm - N/A   Clear
2:27 AM 53.6 °F 53.6 °F 100% 29.80 in 1.0 mi Calm Calm - N/A   Mist
2:48 AM 53.6 °F 51.8 °F 94% 29.79 in 0.2 mi Calm Calm - N/A Fog Fog
3:08 AM 51.8 °F 51.8 °F 100% 29.78 in 0.2 mi Calm Calm - N/A Fog Fog
3:27 AM 51.8 °F 51.8 °F 100% 29.79 in 0.2 mi Calm Calm - N/A Fog Fog
3:48 AM 51.8 °F 51.8 °F 100% 29.81 in 1.2 mi WSW 3.5 mph - N/A   Mostly Cloudy
4:08 AM 53.6 °F 51.8 °F 94% 29.80 in 1.8 mi Calm Calm - N/A   Mostly Cloudy
4:27 AM 51.8 °F 51.8 °F 100% 29.79 in 0.2 mi Calm Calm - N/A Fog Fog
4:48 AM 51.8 °F 51.8 °F 100% 29.78 in 0.2 mi SSE 3.5 mph - N/A Fog Fog
5:08 AM 50.0 °F 48.2 °F 94% 29.77 in 0.2 mi Calm Calm - N/A Fog Fog
5:27 AM 48.2 °F 46.4 °F 93% 29.78 in 0.2 mi South 3.5 mph - N/A Fog Fog
5:48 AM 48.2 °F 46.4 °F 93% 29.78 in 0.2 mi Calm Calm - N/A Fog Fog
6:08 AM 50.0 °F 48.2 °F 94% 29.79 in 0.2 mi Calm Calm - N/A Fog Fog
6:27 AM 51.8 °F 50.0 °F 94% 29.79 in 0.2 mi Calm Calm - N/A Fog Fog
6:48 AM 51.8 °F 51.8 °F 100% 29.80 in 0.2 mi Calm Calm - N/A Fog Fog
7:08 AM 53.6 °F 53.6 °F 100% 29.80 in 0.2 mi Calm Calm - N/A Fog Fog
7:27 AM 53.6 °F 51.8 °F 94% 29.81 in 0.8 mi Calm Calm - N/A   Overcast
7:48 AM 53.6 °F 53.6 °F 100% 29.80 in 0.2 mi Calm Calm - N/A Fog Fog
8:07 AM 53.6 °F 53.6 °F 100% 29.80 in 0.2 mi Calm Calm - N/A Fog Fog
8:28 AM 57.2 °F 55.4 °F 94% 29.80 in 0.2 mi SSE 4.6 mph - N/A Fog Fog
8:48 AM 57.2 °F 55.4 °F 94% 29.80 in 0.2 mi SW 4.6 mph - N/A Fog Fog
9:08 AM 57.2 °F 55.4 °F 94% 29.80 in 2.5 mi SW 3.5 mph - N/A   Overcast
9:28 AM 57.2 °F 55.4 °F 94% 29.79 in 10.0 mi Calm Calm - N/A   Mostly Cloudy
9:48 AM 59.0 °F 59.0 °F 100% 29.80 in 10.0 mi SW 3.5 mph - N/A   Scattered Clouds
10:08 AM 59.0 °F 59.0 °F 100% 29.80 in 10.0 mi Calm Calm - N/A   Scattered Clouds
10:28 AM 59.0 °F 59.0 °F 100% 29.80 in 10.0 mi Calm Calm - N/A   Clear
10:47 AM 59.0 °F 59.0 °F 100% 29.80 in 10.0 mi SW 3.5 mph - N/A   Clear
11:08 AM 60.8 °F 59.0 °F 94% 29.79 in 10.0 mi SSE 5.8 mph - N/A   Scattered Clouds
11:28 AM 62.6 °F 60.8 °F 94% 29.80 in 10.0 mi South 5.8 mph - N/A   Mostly Cloudy
11:47 AM 64.4 °F 57.2 °F 77% 29.80 in 10.0 mi SSW 8.1 mph - N/A   Mostly Cloudy
12:08 PM 64.4 °F 57.2 °F 77% 29.80 in 10.0 mi SW 8.1 mph - N/A   Mostly Cloudy
12:28 PM 66.2 °F 59.0 °F 78% 29.79 in 10.0 mi SSW 8.1 mph - N/A   Scattered Clouds
12:47 PM 64.4 °F 55.4 °F 73% 29.79 in 10.0 mi SSW 6.9 mph - N/A   Mostly Cloudy
1:08 PM 64.4 °F 55.4 °F 73% 29.79 in 10.0 mi SW 5.8 mph - N/A   Mostly Cloudy
1:28 PM 64.4 °F 55.4 °F 73% 29.79 in 10.0 mi WSW 5.8 mph - N/A Rain Light Rain
1:48 PM 64.4 °F 57.2 °F 77% 29.80 in 10.0 mi WSW 3.5 mph - N/A Rain Light Rain
2:08 PM 64.4 °F 55.4 °F 73% 29.79 in 10.0 mi Calm Calm - N/A   Mostly Cloudy
2:28 PM 64.4 °F 55.4 °F 73% 29.79 in 10.0 mi WSW 4.6 mph - N/A   Mostly Cloudy
2:48 PM 66.2 °F 55.4 °F 68% 29.78 in 10.0 mi SW 4.6 mph - N/A   Mostly Cloudy
3:08 PM 66.2 °F 55.4 °F 68% 29.78 in 10.0 mi WSW 4.6 mph - N/A   Overcast
3:27 PM 64.4 °F 55.4 °F 73% 29.79 in 10.0 mi SW 4.6 mph - N/A   Overcast
3:48 PM 64.4 °F 55.4 °F 73% 29.79 in 10.0 mi SSW 3.5 mph - N/A   Overcast
4:08 PM 62.6 °F 59.0 °F 88% 29.78 in 5.0 mi SW 4.6 mph - 0.03 in Rain Rain
4:27 PM 62.6 °F 59.0 °F 88% 29.77 in 7.0 mi Calm Calm - 0.06 in Rain Light Rain
4:48 PM 62.6 °F 55.4 °F 77% 29.76 in 10.0 mi Calm Calm - 0.06 in   Overcast
5:08 PM 62.6 °F 59.0 °F 88% 29.77 in 10.0 mi Calm Calm - N/A   Mostly Cloudy
5:27 PM 64.4 °F 59.0 °F 83% 29.77 in 10.0 mi North 3.5 mph - N/A   Scattered Clouds
5:48 PM 62.6 °F 57.2 °F 82% 29.77 in 10.0 mi Calm Calm - N/A   Mostly Cloudy
6:07 PM 62.6 °F 59.0 °F 88% 29.77 in 10.0 mi Calm Calm - N/A   Overcast
6:28 PM 62.6 °F 59.0 °F 88% 29.77 in 10.0 mi Calm Calm - N/A   Overcast
6:48 PM 62.6 °F 59.0 °F 88% 29.77 in 10.0 mi Calm Calm - N/A Rain Light Rain
7:08 PM 62.6 °F 59.0 °F 88% 29.76 in 7.0 mi Calm Calm - N/A Rain Light Rain
7:28 PM 62.6 °F 59.0 °F 88% 29.77 in 10.0 mi Calm Calm - N/A   Mostly Cloudy
7:48 PM 62.6 °F 59.0 °F 88% 29.78 in 10.0 mi North 3.5 mph - N/A   Scattered Clouds
8:08 PM 62.6 °F 59.0 °F 88% 29.78 in 10.0 mi Calm Calm - N/A   Scattered Clouds
8:28 PM 62.6 °F 59.0 °F 88% 29.78 in 10.0 mi North 3.5 mph - N/A   Overcast
8:48 PM 60.8 °F 57.2 °F 88% 29.78 in 10.0 mi Calm Calm - N/A   Overcast
9:08 PM 59.0 °F 57.2 °F 94% 29.78 in 10.0 mi Calm Calm - N/A   Overcast
9:28 PM 59.0 °F 55.4 °F 88% 29.78 in 10.0 mi Calm Calm - N/A   Overcast
9:48 PM 59.0 °F 57.2 °F 94% 29.78 in 10.0 mi Calm Calm - N/A   Overcast
10:08 PM 62.6 °F 59.0 °F 88% 29.79 in 10.0 mi North 4.6 mph - N/A   Overcast
10:27 PM 60.8 °F 55.4 °F 82% 29.79 in 10.0 mi North 3.5 mph - N/A   Overcast
10:48 PM 59.0 °F 55.4 °F 88% 29.79 in 10.0 mi North 4.6 mph - N/A   Overcast
11:08 PM 59.0 °F 55.4 °F 88% 29.79 in 10.0 mi NNW 4.6 mph - N/A   Overcast
11:27 PM 59.0 °F 55.4 °F 88% 29.79 in 10.0 mi North 3.5 mph - N/A   Overcast
11:48 PM 59.0 °F 55.4 °F 88% 29.79 in 10.0 mi North 4.6 mph - N/A   Overcast